Regional Weather Roundup
Issued by NWS

Home | Current Version | Previous Version | Graphics & Text | Print | Product List | Glossary On
Versions: 1 2 3 4 5 6 7 8 9 10 11 12 13 14 15 16 17 18 19 20 21 22 23 24 25 26 27 28 29 30 31 32 33 34 35 36 37 38 39 40 41 42 43 44 45 46 47 48 49 50
000
ASUS44 KMEG 281010
RWRTN
TENNESSEE HOURLY STATE WEATHER ROUNDUP
NATIONAL WEATHER SERVICE MEMPHIS TN
400 AM CST WED JAN 28 2015

TNZ002-004-019-021-049-052-054-088>092-281100-
WEST TENNESSEE

CITY           SKY/WX    TMP DP  RH WIND       PRES   REMARKS
MEMPHIS INTL   CLEAR     38  29  70 SE9       30.23S WCI  31
NWS MEMPHIS      N/A     35 N/A N/A MISG        N/A
JACKSON        CLEAR     27  25  92 E6        30.25F WCI  20
DYERSBURG      CLEAR     30  16  55 CALM      30.28R
UNION CITY     CLEAR     25  25 100 E3        30.25S
PARIS          CLEAR     21  19  93 CALM      30.25S
LEXINGTON      CLEAR     27  25  93 CALM      30.23F
SAVANNAH         N/A     25  25 100 SE3       30.25S
$$

TNZ008-025-027-028-033-062-065-066-281100-
NORTH MIDDLE TENNESSEE

CITY           SKY/WX    TMP DP  RH WIND       PRES   REMARKS
NASHVILLE      CLOUDY    34  28  80 NE6       30.27R WCI  29
CLARKSVILLE    PTCLDY    31  28  89 E5        30.27S WCI  26
SMYRNA         CLOUDY    32  28  85 NE9       30.28R WCI  24
COOKEVILLE     PTCLDY    28  21  74 N3        30.23R
CROSSVILLE     CLOUDY    27  20  75 N7        30.19R WCI  19
$$

TNZ061-075-076-078-094-096-097-281100-
SOUTH MIDDLE TENNESSEE

CITY           SKY/WX    TMP DP  RH WIND       PRES   REMARKS
FAYETTEVILLE   CLOUDY    30  25  80 N18       30.22R WCI  18
TULLAHOMA      CLOUDY    30  23  74 N8        30.23R WCI  23
WINCHESTER     CLOUDY    32  25  74 N7        30.23R WCI  26
MCMINNVILLE    CLOUDY    30  25  80 NE8       30.23R WCI  23
COLUMBIA       CLOUDY    34  34 100 NE8       30.23R WCI  27
SHELBYVILLE    CLOUDY    34  28  80 N7        30.26R WCI  28
$$

TNZ017-018-042-046-047-281100-
NORTHEAST TENNESSEE

CITY           SKY/WX    TMP DP  RH WIND       PRES   REMARKS
TRI CITIES     CLEAR     19  11  70 N5        30.20R WCI  12
ELIZABETHTON   SUNNY     16  10  79 CALM      30.19R
$$

TNZ012-013-036-069-073-074-281100-
CENTRAL EAST TENNESSEE

CITY           SKY/WX    TMP DP  RH WIND       PRES   REMARKS
KNOXVILLE      CLEAR     27  19  72 NE9       30.23R WCI  18
OAK RIDGE      CLEAR     29  19  66 NE3       30.24R
GATLINBURG     SUNNY     19  18  93 CALM      30.23R
MORRISTOWN     SUNNY     21  18  86 NW3       30.21S
$$

TNZ083-085-099-281100-
SOUTHEAST TENNESSEE

CITY           SKY/WX    TMP DP  RH WIND       PRES   REMARKS
CHATTANOOGA    CLOUDY    36  25  64 N14       30.22R WCI  27
$$

SKY/WX REPORTED AS FAIR MEANS FEW OR NO CLOUDS BELOW
12 THOUSAND FEET.




USA.gov is the U.S. government's official web portal to all federal, state and local government web resources and services.